Flag for Canada Weather past 2 weeks in Cranbrook, British Columbia, Canada

Now
52 °F

Overcast.


Feels Like: 52 °F
Forecast: 49 / 78 °F
Wind: 2 mph from North

Location: Cranbrook

Current Time: Sep 17, 2014 at 10:39:52 AM

Latest Report: Sep 17, 2014 at 10:00 AM


Visibility: 25 mi

Pressure: 29.93 "Hg

Humidity: 67%

Dew point: 41 °F

Location of CranbrookLocation

Historic Weather in Cranbrook — Graph

°F

Cranbrook temperature yesterday

Maximum temperature yesterday: 73 °F (at 5:00 PM)
Minimum temperature yesterday: 43 °F (at 8:00 AM)
Average temperature yesterday: 58 °F

Past Weeks' High & Low Weather Summary

 TemperatureHumidityPressure
High81 °F (Sep 7, 6:00 PM)100% (Sep 3, 5:50 AM)30.64 "Hg (Sep 3, 5:50 AM)
Low27 °F (Sep 11, 4:00 AM)27% (Sep 14, 5:00 PM)29.65 "Hg (Sep 3, 3:00 AM)
Average52 °F65%30.10 "Hg
* Reported Sep 2 9:00 AM — Sep 17 9:00 AM, Cranbrook, Weather by CustomWeather, © 2014

Note: Actual official high and low records may vary slightly from our data, if they occured in-between our weather recording intervals... More about our weather records

Advertising

Cranbrook weather history for previous 24 hours

 ConditionsComfort  
Time TempWeatherWind HumidityBarometerVisibility
9:00 AM
Sep 17
50 °FPartly sunny.3 mph71%29.93 "Hg25 mi
8:00 AM45 °FPassing clouds.2 mph81%29.94 "Hg25 mi
7:00 AM46 °FPassing clouds.5 mph76%29.91 "Hg25 mi
6:00 AM45 °FPassing clouds.5 mph76%29.91 "Hg25 mi
5:00 AM50 °FPassing clouds.5 mph67%29.90 "Hg25 mi
4:00 AM52 °FPassing clouds.6 mph67%29.90 "Hg25 mi
3:00 AM50 °FPassing clouds.5 mph71%29.91 "Hg25 mi
2:00 AM55 °FPassing clouds.7 mph59%29.90 "Hg25 mi
1:00 AM57 °FClear.7 mph59%29.90 "Hg25 mi
12:00 AM57 °FClear.7 mph63%29.90 "Hg25 mi
11:00 PM
Sep 16
59 °FRefreshingly cool.8 mph59%29.90 "Hg25 mi
10:00 PM59 °FPassing clouds.5 mph63%29.90 "Hg25 mi
9:00 PM63 °FPassing clouds.6 mph59%29.90 "Hg25 mi
8:00 PM61 °FPassing clouds.No wind63%29.90 "Hg25 mi
7:00 PM73 °FPassing clouds.2 mph36%29.87 "Hg25 mi
6:00 PM73 °FPassing clouds.2 mph33%29.88 "Hg25 mi
5:00 PM73 °FPassing clouds.3 mph36%29.89 "Hg25 mi
4:00 PM72 °FPassing clouds.5 mph38%29.91 "Hg25 mi
3:00 PM70 °FPartly sunny.6 mph40%29.94 "Hg25 mi
2:00 PM68 °FPartly sunny.5 mph43%29.96 "Hg25 mi
1:00 PM63 °FPartly sunny.2 mph49%29.98 "Hg25 mi
12:00 PM59 °FPartly sunny.2 mph55%30.01 "Hg25 mi
11:00 AM55 °FPartly sunny.2 mph63%30.03 "Hg25 mi
10:00 AM52 °FPartly sunny.No wind67%30.05 "Hg25 mi
Weather by CustomWeather, © 2014

See weather overviewHow to use our weather pages